This is the latest recevied weather packets stored in our database for station/object KE8GJZ-1. If no packets are shown the sender has not sent any weather packets the latest 10 day(s).
| Time | Temp. | Humidity | Pressure | Rain* | Wind** | Luminosity | Snow |
|---|---|---|---|---|---|---|---|
| 1778079938 | 12.78° C | 50% | 1010.9 hPa | 0 mm | - | 584 W/m² | - |
| 1778079635 | 11.67° C | 51% | 1010.8 hPa | 0 mm | - | 537 W/m² | - |
| 1778079331 | 11.11° C | 49% | 1010.6 hPa | 0 mm | - | 512 W/m² | - |
| 1778079029 | 11.67° C | 51% | 1010.7 hPa | 0 mm | - | 418 W/m² | - |
| 1778078725 | 11.11° C | 51% | 1010.7 hPa | 0 mm | - | 505 W/m² | - |
| 1778078423 | 11.67° C | 53% | 1010.6 hPa | 0 mm | - | 513 W/m² | - |
| 1778078121 | 11.67° C | 51% | 1010.6 hPa | 0 mm | - | 547 W/m² | - |
| 1778077819 | 11.67° C | 51% | 1010.4 hPa | 0 mm | - | 471 W/m² | - |
| 1778077516 | 12.78° C | 50% | 1010.3 hPa | 0 mm | - | 448 W/m² | - |
| 1778077214 | 12.22° C | 47% | 1010.4 hPa | 0 mm | - | 537 W/m² | - |
| 1778076912 | 12.22° C | 49% | 1009.9 hPa | 0 mm | - | 459 W/m² | - |
| 1778076610 | 11.67° C | 50% | 1010.5 hPa | 0 mm | - | 555 W/m² | - |
| 1778076307 | 11.67° C | 49% | 1010.2 hPa | 0 mm | - | 458 W/m² | - |
| 1778076004 | 11.67° C | 51% | 1010.2 hPa | 0 mm | - | 321 W/m² | - |
| 1778075701 | 12.22° C | 47% | 1009.9 hPa | 0 mm | - | 414 W/m² | - |
| 1778075397 | 11.11° C | 55% | 1009.8 hPa | 0 mm | - | 422 W/m² | - |
| 1778075093 | 10.56° C | 52% | 1009.8 hPa | 0 mm | - | 344 W/m² | - |
| 1778074789 | 10.56° C | 50% | 1009.9 hPa | 0 mm | - | 410 W/m² | - |
| 1778074487 | 10° C | 54% | 1009.9 hPa | 0 mm | - | 329 W/m² | - |
| 1778074183 | 10° C | 55% | 1010.1 hPa | 0 mm | - | 184 W/m² | - |
| 1778073881 | 10° C | 56% | 1009.8 hPa | 0 mm | - | 197 W/m² | - |
| 1778073578 | 9.44° C | 56% | 1009.7 hPa | 0 mm | - | 228 W/m² | - |
| 1778073275 | 9.44° C | 58% | 1009.7 hPa | 0 mm | - | 144 W/m² | - |
| 1778072971 | 8.33° C | 61% | 1009.7 hPa | 0 mm | - | 86 W/m² | - |
| 1778072668 | 8.33° C | 60% | 1009.4 hPa | 0 mm | - | 56 W/m² | - |
* Rain latest hour (hover to see other rain measurements)
** Current wind speed in m/s (hover to see current wind gust speed)